Regional Weather Roundup
Issued by NWS Burlington, VT

Home | Current Version | Previous Version | Text Only | Print | Product List | Glossary On
Versions: 1 2 3 4 5 6 7 8 9 10 11 12 13 14 15 16 17 18 19 20 21 22 23 24 25 26 27 28 29 30 31 32 33 34 35 36 37 38 39 40 41 42 43 44 45 46 47 48 49 50
000
ASUS41 KBTV 301530
RWRBTV
VERMONT REGIONAL WEATHER ROUNDUP
NATIONAL WEATHER SERVICE BURLINGTON VT
1100 AM EDT SAT APR 30 2016

NOTE: "FAIR" INDICATES FEW OR NO CLOUDS BELOW 12,000 FEET WITH NO
SIGNIFICANT WEATHER AND/OR OBSTRUCTIONS TO VISIBILITY.

* THESE REPORTS ARE NOT UNDER NWS QUALITY CONTROL AND/OR DO NOT
  REPORT WEATHER SUCH AS PRECIPITATION AND FOG.

VTZ001>019-301600-
_____VERMONT_____


CITY           SKY/WX    TMP DP  RH WIND       PRES   REMARKS
BURLINGTON     FAIR      53  22  29 NW12      30.23F
MONTPELIER     FAIR      50  17  27 CALM      30.24F
MORRISVILLE    FAIR      54  16  22 NE10      30.22F
ST. JOHNSBURY*   N/A     56  16  20 MISG      30.18F
LYNDONVILLE*   FAIR      53   9  17 NW3       30.21F
MIDDLEBURY*    FAIR      55  21  26 N7        30.21F
RUTLAND*       FAIR      54  25  32 N3        30.21S
SPRINGFIELD    FAIR      57  24  28 SE8       30.18F
HIGHGATE*      FAIR      51  21  31 NW6       30.25F
NEWPORT*       FAIR      50  20  31 NE8       30.22F
BENNINGTON     FAIR      56  31  38 W6        30.20S
SUTTON*          N/A     54 N/A N/A MISG        N/A
GALLUP MILLS*    N/A     55 N/A N/A MISG        N/A
UNION VILLAGE*   N/A     59 N/A N/A MISG        N/A
MT. MANSFIELD*   N/A     39 N/A N/A NW8         N/A

_____LAKE CHAMPLAIN_____


CITY           SKY/WX    TMP DP  RH WIND       PRES   REMARKS
COLCHESTER RF*   N/A     43  32  65 N9          N/A
DIAMOND ISL*     N/A     45  21  39 N18         N/A

$$

NYZ007-026>031-035-052-083-087-301600-
_____NORTHERN NEW YORK_____


CITY           SKY/WX    TMP DP  RH WIND       PRES   REMARKS
PLATTSBURGH    SUNNY     50  21  32 NE10      30.26F
SARANAC LAKE   SUNNY     51  11  20 VRB5      30.18F
MASSENA        SUNNY     53  21  28 N9        30.28S
OGDENSBURG*    SUNNY     57  19  23 NE8       30.24F
STARK FALLS*     N/A     54 N/A N/A SW2         N/A
WATERTOWN      SUNNY     57  21  24 NE10G17   30.21F
FT DRUM        SUNNY     56  19  24 E8        30.20S
ALBANY         MOSUNNY   57  26  30 VRB5      30.21F
GLENS FALLS    SUNNY     55  24  30 E3        30.22S

$$
NHZ002-005-011-301600-
_____NEW HAMPSHIRE_____


CITY           SKY/WX    TMP DP  RH WIND       PRES   REMARKS
LEBANON        SUNNY     55  23  28 CALM      30.19F
KEENE          SUNNY     57  32  38 CALM      30.19F
MT WASHINGTON  PTSUNNY   28  19  69 W17         N/A  WCI  16
PLYMOUTH       FAIR      57  27  32 CALM      30.18F
WHITEFIELD     SUNNY     55  20  25 W6        30.19F

$$

_____REGIONAL QUEBEC LOCATIONS_____


CITY           SKY/WX    TMP DP  RH WIND       PRES   REMARKS
MONTREAL       SUNNY     50  16  25 N10       30.27F
QUEBEC CITY    MOSUNNY   46  10  23 S5        30.27F
SHERBROOKE     SUNNY     50  16  25 NW5       30.22F

_____REGIONAL ONTARIO LOCATIONS_____


CITY           SKY/WX    TMP DP  RH WIND       PRES   REMARKS
OTTAWA         SUNNY     52  14  22 N3        30.27F

______KEY______
VSB  - VISIBILITY IN MILES
WCI  - WIND CHILL INDEX
HX   - HEAT INDEX
$$
NNNN



USA.gov is the U.S. government's official web portal to all federal, state and local government web resources and services.